Location: Hilina Pali Trail
(19.2864°N, 155.2806°W)
Time: 04:05:12
(UTC+00:00)

Daily predictions for brighter satellites

Satellite Brightness Start Highest point End
(mag) Time Altitude Azimuth Time Altitude Azimuth Time Altitude Azimuth
ATLAS 2AS CENTAUR R/B 4.2 05:18:26 10° SE 05:22:26 15° ESE 05:26:34 10° ENE
BREEZE-M DEB (TANK) 2.2 05:23:45 10° WNW 05:25:39 35° SW 05:27:53 10° SSE
NATO 3D Rocket 3.5 05:20:05 10° W 05:26:06 77° SSW 05:30:53 10° ESE
Cosmos 972 Rocket 4.3 05:22:11 10° S 05:26:57 43° E 05:31:33 10° NNE
SJ-6B 4.0 05:23:55 10° SE 05:27:03 25° ENE 05:30:16 10° NNE
Hubble Space Telescope 2.8 05:23:59 10° NW 05:27:19 23° N 05:30:38 10° ENE
SWIFT 2.3 05:24:48 10° W 05:29:03 86° S 05:33:17 10° E
Cosmos 1842 3.2 05:26:09 10° S 05:30:01 83° E 05:33:52 10° N
Delta 128 4.3 05:24:15 10° WNW 05:30:52 85° NNE 05:36:24 10° ESE
Lacrosse 5 2.5 05:27:37 10° S 05:32:10 34° ESE 05:36:42 10° NE
Cosmos 1805 4.3 05:28:54 10° NNE 05:32:17 28° E 05:35:38 10° SE
SPOT 3 Rocket 3.6 05:28:45 10° SSE 05:33:55 89° WSW 05:39:07 10° NNW
USA 186 3.6 05:33:04 10° ESE 05:35:19 17° ENE 05:37:32 10° NE
Cosmos 1766 3.5 05:31:55 10° N 05:35:46 50° E 05:39:35 10° SSE
Cosmos 1544 3.8 05:35:44 10° NNW 05:39:15 55° W 05:42:46 10° S
HJ-1C 3.4 05:36:53 10° SSE 05:40:14 62° ENE 05:43:34 10° N
IRAS Rocket 4.3 05:38:16 10° SSE 05:43:49 86° ENE 05:49:25 10° NNW
NOSS 2-3 (C) 4.2 05:47:31 10° SW 05:51:53 61° WNW 05:56:26 10° NNE
ERS-2 4.1 05:54:11 13° E 05:54:49 13° ENE 05:56:33 10° NE
Cosmos 1626 Rocket 3.6 05:53:46 10° S 05:58:10 64° E 06:02:35 10° NNE
CZ-2D R/B 3.3 05:55:16 10° S 05:59:09 84° WSW 06:03:02 10° NNW
Cosmos 158 Rocket 4.1 05:54:04 10° S 05:59:20 58° ESE 06:04:31 10° NNE
Cosmos 2056 Rocket 4.4 05:59:32 10° NNE 06:04:02 30° ENE 06:06:23 21° ESE
Cosmos 1470 4.1 06:02:35 10° NNE 06:05:34 21° E 06:05:58 20° E
SL-8 R/B 3.6 06:03:13 10° SW 06:08:01 80° SE 06:12:50 10° NE
GPS 2-17 Rocket1 3.5 06:03:57 10° W 06:08:33 50° SSW 06:10:54 25° SE
Aurora 2 Rocket 3.6 06:04:38 10° WSW 06:10:27 81° SSE 06:18:58 10° ENE
Cosmos 1602 Rocket 3.5 06:07:27 10° S 06:11:54 85° E 06:16:22 10° N
Cosmos 1939 Rocket 2.9 06:09:35 21° SSE 06:12:13 63° ENE 06:16:16 10° N
Delta 198 4.1 06:11:26 10° WSW 06:17:38 62° SSE 06:21:08 22° E
Resurs 01 Rocket 1.9 06:17:16 30° SE 06:19:00 46° ENE 06:23:13 10° N
Meteor 2-11 Rocket 4.4 06:13:21 10° S 06:19:17 59° E 06:25:14 10° NNE
CZ-3 Stage 3 3.7 06:09:36 10° SW 06:19:49 56° SSE 06:21:32 29° E
Cosmos 972 4.3 06:14:35 10° S 06:19:52 78° ESE 06:24:48 10° NNE
Cosmos 1844 Rocket 3.6 06:22:16 27° ESE 06:22:17 27° ESE 06:26:56 10° NE
Meteor 2-5 Rocket 4.2 06:20:45 23° SSE 06:23:57 43° E 06:29:30 10° NNE
BREEZE M DEB (TANK) 3.2 06:20:04 10° NW 06:24:35 32° WSW 06:25:40 23° SSW
Cosmos 1812 Rocket 4.4 06:22:25 10° NNE 06:26:17 30° E 06:26:19 30° E
SL-16 R/B 3.8 06:25:27 10° NW 06:30:22 31° WSW 06:35:16 10° SSW
Ariane H10 4.1 06:11:11 10° W 06:34:12 35° SSW 06:36:43 27° SSE
Cosmos 1758 3.4 06:31:07 10° N 06:35:11 76° W 06:36:46 36° S
Cosmos 1733 3.1 06:33:02 10° N 06:36:48 82° W 06:37:40 51° S
Aureole 1 4.4 06:34:27 10° N 06:37:45 78° ENE 06:38:02 71° SE
GPS 2-18 Rocket1 2.8 06:35:19 10° WSW 06:39:00 85° S 06:39:01 85° SSE
GENESIS II 4.4 06:38:00 10° SSW 06:41:49 69° WNW 06:45:40 10° NNE
ATLAS 3B CENTAUR R/B 4.4 06:16:28 10° SW 06:42:17 66° SSE 06:50:33 18° E
Cosmos 1315 Rocket 3.6 06:43:38 37° NE 06:43:38 37° NE 06:46:28 10° NNE
YAOGAN 6 4.4 06:42:20 17° SSW 06:44:21 28° W 06:47:27 10° NW
Cosmos 1707 4.1 06:44:13 13° SSW 06:47:20 38° W 06:50:57 10° NNW
EPKM 2.8 06:47:39 10° WNW 06:51:26 43° WSW 06:51:26 43° WSW
SEDSat Delta rocket 3.3 06:47:15 10° SW 06:52:10 59° S 06:52:10 59° S
ASTRO E2 2.9 06:49:10 10° WNW 06:52:44 65° WSW 06:52:44 65° WSW
Cosmos 1825 Rocket 3.4 06:54:17 78° SSE 06:54:34 87° E 06:59:02 10° N
Cosmos 1953 2.8 06:51:46 10° NNW 06:55:40 55° W 06:56:11 51° SW
OAO 2 Rocket 3.7 06:52:56 10° WNW 06:58:05 53° SW 06:58:36 51° SSW
Palapa 6 Rocket 4.0 06:58:35 10° W 07:04:10 67° N 07:06:47 37° ENE
GPS 2-15 Rocket1 4.1 07:01:09 10° W 07:04:35 36° SW 07:04:35 36° SW
Cosmos 1603 4.2 07:00:15 10° NNW 07:05:50 56° WSW 07:07:33 41° SSW
Hubble Space Telescope 1.8 07:05:00 10° NW 07:08:22 41° N 07:08:22 41° N
Iridium 4 Rocket 3.7 07:08:09 53° S 07:09:35 83° W 07:15:14 10° N
Meteor 1-16 Rocket 4.2 07:04:52 10° N 07:10:18 66° ENE 07:10:18 66° ENE
SWIFT 4.0 07:06:59 10° W 07:09:14 26° WSW 07:09:14 26° WSW
Cosmos 2285 Rocket 4.1 07:05:55 16° SSW 07:11:03 73° WNW 07:17:22 10° N
In-Cosmos 22 4.1 07:10:57 65° SSW 07:11:45 83° W 07:17:19 10° N
ATLAS 2AS CENTAUR R/B 3.2 07:05:13 10° SSW 07:12:35 70° WNW 07:20:34 10° NNE
Timation 1 Rocket 4.1 07:14:02 76° SSE 07:14:28 82° ESE 07:20:25 10° NNE
Lacrosse 5 4.4 07:11:16 10° W 07:15:04 21° NW 07:18:52 10° N
Cosmos 1452 Rocket 4.2 07:36:32 10° NNW 07:40:31 50° NW 07:40:31 50° NW
H-2A R/B 2.9 07:44:58 47° NNW 07:44:58 47° NNW 07:48:45 10° NNW
USA 215 3.3 07:44:03 68° WSW 07:44:03 68° WSW 07:50:27 10° NW
Cosmos 1943 4.3 07:44:21 10° NW 07:49:05 37° W 07:49:05 37° W
ARGOS 4.3 07:56:08 40° WNW 07:56:08 40° WNW 08:00:15 10° NNW
Aurora 2 Rocket 4.4 07:57:49 10° W 08:05:11 64° N 08:07:28 50° NE
ATLAS 3B R/B 4.4 08:47:57 10° N 08:50:38 23° NNE 08:50:38 23° NNE
ATLAS 3B CENTAUR R/B 4.3 09:07:13 10° W 09:17:02 39° WNW 09:17:02 39° WNW
